Overview Statistics Trail Chart Weather Telemetry Raw packets
 

This is the latest recevied weather packets stored in our database for station/object KK6MIG-13. If no packets are shown the sender has not sent any weather packets the latest 10 day(s).

<< 376 377 378 379 380 381 382 >>
Time Temp. Humidity Pressure Rain* Wind** Luminosity Snow
1788129453 14.44° C 1% 1012 hPa 0 mm - 476 W/m² -
1788129395 14.44° C 1% 1012 hPa 0 mm - 425 W/m² -
1788129390 14.44° C 1% 1012.1 hPa 0 mm - 452 W/m² -
1788129266 14.44° C 1% 1012.1 hPa 0 mm - 457 W/m² -
1788129207 14.44° C 1% 1012 hPa 0 mm - 485 W/m² -
1788129146 14.44° C 1% 1012.1 hPa 0 mm - 443 W/m² -
1788129086 14.44° C 1% 1012.1 hPa 0 mm - 466 W/m² -
1788129021 14.44° C 1% 1012.1 hPa 0 mm - 438 W/m² -
1788128961 14.44° C 1% 1012.1 hPa 0 mm - 466 W/m² -
1788128901 14.44° C 1% 1012.1 hPa 0 mm - 476 W/m² -
1788128840 14.44° C 1% 1012.1 hPa 0 mm - 487 W/m² -
1788128780 14.44° C 1% 1012.1 hPa 0 mm - 476 W/m² -
1788128718 14.44° C 2% 1012.1 hPa 0 mm - 471 W/m² -
1788128658 14.44° C 1% 1012.1 hPa 0 mm - 411 W/m² -
1788128599 14.44° C 1% 1012.1 hPa 0 mm - 415 W/m² -
1788128539 14.44° C 2% 1012.2 hPa 0 mm - 515 W/m² -
1788128478 14.44° C 5% 1012.2 hPa 0 mm - 473 W/m² -
1788128419 14.44° C 5% 1012.2 hPa 0 mm - 517 W/m² -
1788128358 15° C 6% 1012.2 hPa 0 mm - 503 W/m² -
1788128298 15° C 5% 1012.2 hPa 0 mm - 490 W/m² -
1788128238 15° C 5% 1012.2 hPa 0 mm - 515 W/m² -
1788128188 15° C 2% 1012.2 hPa 0 mm - 520 W/m² -
1788128118 15° C 1% 1012.2 hPa 0 mm - 529 W/m² -
1788128059 15° C 3% 1012.2 hPa 0 mm - 577 W/m² -
1788127999 15° C 5% 1012.2 hPa 0 mm - 573 W/m² -

* Rain latest hour (hover to see other rain measurements)
** Current wind speed in m/s (hover to see current wind gust speed)